AirNav   TITAN Aviation Fuels
 
 564 users online  

71K Westport Airport
Wichita, Kansas, USA

GOING TO WICHITA?


FAA INFORMATION EFFECTIVE 03 NOVEMBER 2022

Location

FAA Identifier: 71K
Lat/Long: 37-38-51.7000N 097-23-01.3000W
37-38.861667N 097-23.021667W
37.6476944,-97.3836944
(estimated)
Elevation: 1290 ft. / 393 m (estimated)
Variation: 07E (1985)
From city: 3 miles SW of WICHITA, KS
Time zone: UTC -6 (UTC -5 during Daylight Saving Time)
Zip code: 67217

Airport Operations

Airport use: Open to the public
Activation date: 07/1947
Control tower: no
ARTCC: KANSAS CITY CENTER
FSS: WICHITA FLIGHT SERVICE STATION
NOTAMs facility: ICT (NOTAM-D service available)
Attendance: DAYLIGHT HOURS
Wind indicator: yes
Segmented circle: no

Airport Communications

CTAF: 122.9
WX ASOS at ICT (2.3 nm W): PHONE 316-945-8022
WX AWOS-3PT at BEC (8 nm E): 119.45 (316-515-7116)
WX ASOS at AAO (10 nm NE): 134.025 (316-636-2541)
WX AWOS-3P at 3AU (15 nm E): 124.175 (316-733-6696)
WX AWOS-2 at 1K1 (15 nm NE): 118.3 (316-530-6004)
WX AWOS-3P at EGT (19 nm S): 118.875 (620-359-2156)

Nearby radio navigation aids

VOR radial/distance  VOR name  Freq  Var
ICTr115/11.2WICHITA VORTAC113.8007E
HUTr125/33.5HUTCHINSON VOR/DME116.8004E

 
NDB name  Hdg/Dist  Freq  Var  ID
PICHE035/5.433204EIC .. -.-.

Airport Services

Fuel available: 100LL
Parking: hangars and tiedowns
Airframe service: MAJOR
Powerplant service: MAJOR
Bottled oxygen: NONE
Bulk oxygen: NONE

Runway Information

Runway 17/35

Dimensions: 2520 x 30 ft. / 768 x 9 m
Surface: asphalt, in good condition
RWY 17/35 HAS GRASS ENCROACHING ON RWY SIDES NUMEROUS SURFACE CRACKS
Weight bearing capacity: 
Single wheel: 3.0
RUNWAY 17  RUNWAY 35
Latitude: 37-39.069500N37-38.654167N
Longitude: 097-23.025833W097-23.016833W
Traffic pattern: leftright
Displaced threshold: 400 ft.no
Markings: basic, in good conditionbasic, in good condition
Runway end identifier lights: nono
Obstructions: 22 ft. bldg, 230 ft. from runway, 1:1 slope to clear
APCH RATIO 28:1 TO DSPLCD THR.
40 ft. pline, 1260 ft. from runway, 26:1 slope to clear
+8 FT FENCE 50 FT FROM THR; BOTH SIDES OF CNTRLN.

Airport Ownership and Management from official FAA records

Ownership: Privately-owned
Owner: EARL V. LONG
2558 S KESSLER
WICHITA, KS 67217
Phone 316-943-5510
Manager: EARL V. LONG
2558 S KESSLER
WICHITA, KS 67217
Phone 316-943-5510

Airport Operational Statistics

Aircraft based on the field: 14
Single engine airplanes: 12
Multi engine airplanes: 2
    
Aircraft operations: avg 72/month *
93% local general aviation
7% transient general aviation
* for 12-month period ending 19 July 2019

Additional Remarks

DEPS CTC WICHITA ATCT ON THE GROUND ON FREQ 125.7 FOR DEP INSTRUCTIONS. IF UNABLE - CONTACT ATCT ON FREQ 118.2 UPON DEP & REMAIN EAST OF THE FIELD UNTIL COMMUNICATIONS ARE ESTABLISHED.
FOR CD CTC WICHITA APCH AT 316-350-1520.

Instrument Procedures

There are no published instrument procedures at 71K.

Some nearby airports with instrument procedures:

KICT - Wichita Dwight D Eisenhower National Airport (2 nm W)
KIAB - Mc Connell Air Force Base (6 nm E)
KCEA - Cessna Aircraft Field Airport (6 nm E)
KBEC - Beech Factory Airport (8 nm E)
KAAO - Colonel James Jabara Airport (10 nm NE)
3AU - Augusta Municipal Airport (15 nm E)
1K1 - Lloyd Stearman Field Airport (15 nm NE)
KEGT - Wellington Municipal Airport (19 nm S)
 
Loc | Ops | Rwys | IFR | FBO | Links
Com | Nav | Svcs | Stats | Notes
Area around 71K (Westport Airport)
 
Road maps at: MapQuest Bing Google
 
Aerial photo
WARNING: Photo may not be current or correct
Aerial photo of 71K (Westport Airport)
Do you have a better or more recent aerial photo of Westport Airport that you would like to share? If so, please send us your photo.

 
Sectional chart

 
Airport distance calculator
Flying to Westport Airport? Find the distance to fly.

From to 71K

Sunrise and sunset
Times for 01-Dec-2022
 Local
(UTC-6)
 Zulu
(UTC)
Morning civil twilight06:5812:58
Sunrise07:2713:27
Sunset17:1023:10
Evening civil twilight17:3923:39

Current date and time
Zulu (UTC)  01-Dec-2022 06:43:17
Local (UTC-6)  01-Dec-2022 00:43:17
 
METAR
KICT 
2nm W 
010553Z 16007KT 10SM FEW250 M03/M07 A3037 RMK AO2 SLP297 T10281067 10000 21033 400501083 58009
KIAB 
6nm E 
010555Z AUTO 17006KT 10SM CLR M02/M07 A3035 RMK AO2 SLP294 T10241073 10011 21025 400491066 58008 $
KBEC 
8nm E 
010615Z AUTO 15006KT 10SM CLR M03/M07 A3037 RMK AO2 T10291073
KAAO 
10nm NE 
010554Z AUTO 16006KT 10SM CLR M04/M08 A3038 RMK AO2 SLP302 T10391083 10011 21039 400441067 58006
K3AU 
15nm E 
010615Z AUTO 15004KT 10SM CLR M03/M08 A3039 RMK AO2
K1K1 
15nm NE 
010615Z AUTO 17005KT 10SM CLR M04/M08 A3038 RMK AO2 T10371085
KEGT 
19nm S 
010615Z AUTO 13008KT 10SM CLR M02/M06 A3038 RMK AO2 T10231057
TAF
KICT 
2nm W 
010526Z 0106/0206 16010KT P6SM SCT250 FM011000 17014G20KT P6SM BKN250 WS020/19040KT FM011500 18017G25KT P6SM SCT250 FM011800 19024G35KT P6SM SKC FM020000 18020G29KT P6SM SKC
KIAB 
6nm E 
010200Z 0102/0208 19006KT 9999 SKC QNH3030INS BECMG 0107/0108 19006KT 9999 SKC WS020/23045KT QNH3028INS BECMG 0113/0114 18010G20KT 9999 SKC QNH3025INS BECMG 0116/0117 21025G35KT 9999 FEW050 QNH3007INS BECMG 0122/0123 20010G15KT 9999 SKC QNH2992INS BECMG 0202/0203 20010G15KT 9999 SKC WS020/23055KT QNH2980INS TX09/0121Z TNM03/0111Z
NOTAMs
Click for the latest NOTAMs
NOTAMs are issued by the DoD/FAA and will open in a separate window not controlled by AirNav.

 

 
 

FBO, Fuel Providers, and Aircraft Ground Support

  
 Business Name 
 
 Contact 
 
 Services / Description 
 
Fuel Prices
 
Comments
  
Westport Ag Sales and Service 316-943-5510
no information available

If you are affiliated with Westport Ag Sales and Service and would like to show here your services, contact info, web link, logo, and more, click here
100LL
SS $6.36 
 Updated 23-Nov-2022
 
   write
SS=Self service
Update Fuel Prices
 

Would you like to see your business listed on this page?

 If your business provides an interesting product or service to pilots, flight crews, aircraft, or users of the Westport Airport, you should consider listing it here.  To start the listing process, click on the button below
 
Add a business
 

Other Pages about Westport Airport

Update a link
 
Copyright © AirNav, LLC. All rights reserved. Privacy Policy  Contact